Overview Statistics Trail Chart Weather Telemetry Raw packets
 

This is the latest recevied weather packets stored in our database for station/object WW6Q. If no packets are shown the sender has not sent any weather packets the latest 10 day(s).

<< 63 64 65 66 67 68 69 >>
Time Temp. Humidity Pressure Rain* Wind** Luminosity Snow
1788183974 22.22° C 90% 1017.2 hPa 0 mm - 118 W/m² -
1788183668 22.22° C 90% 1017 hPa 0 mm - 119 W/m² -
1788183367 22.22° C 91% 1017.3 hPa 0 mm - 74 W/m² -
1788183063 22.22° C 91% 1017.5 hPa 0 mm - 57 W/m² -
1788182759 22.22° C 91% 1017.6 hPa 0 mm - 50 W/m² -
1788182457 22.22° C 90% 1017.3 hPa 0 mm - 39 W/m² -
1788182152 22.22° C 90% 1017.3 hPa 0 mm - 58 W/m² -
1788181849 22.22° C 90% 1017.2 hPa 0 mm - 71 W/m² -
1788181544 22.22° C 91% 1017.1 hPa 0 mm - 75 W/m² -
1788181240 22.22° C 91% 1016.9 hPa 0 mm - 58 W/m² -
1788180938 21.67° C 91% 1016.9 hPa 0 mm - 52 W/m² -
1788180634 21.67° C 92% 1016.9 hPa 0 mm - 40 W/m² -
1788180330 21.67° C 93% 1016.9 hPa 0 mm - 45 W/m² -
1788180026 21.67° C 93% 1016.7 hPa 0 mm - 51 W/m² -
1788179724 21.67° C 92% 1016.8 hPa 0 mm - 62 W/m² -
1788179419 21.67° C 92% 1016.7 hPa 0 mm - 59 W/m² -
1788179114 21.67° C 93% 1016.7 hPa 0 mm - 53 W/m² -
1788178809 21.67° C 92% 1016.5 hPa 0 mm - 49 W/m² -
1788178504 21.67° C 92% 1016.5 hPa 0 mm - 42 W/m² -
1788178200 21.67° C 91% 1016.3 hPa 0 mm - 40 W/m² -
1788177899 21.67° C 92% 1016.4 hPa 0 mm - 51 W/m² -
1788177594 21.11° C 93% 1016.5 hPa 0 mm - 52 W/m² -
1788177291 21.11° C 93% 1016.4 hPa 0 mm - 49 W/m² -
1788176991 21.11° C 93% 1016.4 hPa 0 mm - 55 W/m² -
1788176689 20.56° C 94% 1016.5 hPa 0 mm - 39 W/m² -

* Rain latest hour (hover to see other rain measurements)
** Current wind speed in m/s (hover to see current wind gust speed)